CW3340 Weather Reports


time (UTC)temp
F
wind
direction
speed
knots
gust
knots
rain 1hr
in
rain 24hr
in
rain mn
in
humidity
%
barometer
mb
20260506033604 57 182 7.8 18.2 0.00 0.00 0.00 83 1011.1
20260506033104 58 177 7.8 19.1 0.00 0.00 0.00 83 1011.1
20260506032604 58 180 7.0 19.1 0.00 0.00 0.00 83 1011.0
20260506032104 58 187 8.7 17.4 0.00 0.00 0.00 83 1011.1
20260506031604 58 172 9.6 20.9 0.00 0.00 0.00 82 1011.1
20260506031104 58 176 11.3 20.9 0.00 0.00 0.00 82 1011.1
20260506030604 58 190 6.1 18.2 0.00 0.00 0.00 82 1011.0
20260506030105 58 155 6.1 18.2 0.00 0.00 0.00 82 1011.1
20260506025604 58 197 6.1 15.6 0.00 0.00 0.00 82 1011.1
20260506025104 58 203 6.1 17.4 0.00 0.00 0.00 82 1011.0
20260506024604 58 191 6.1 20.0 0.00 0.00 0.00 82 1011.0
20260506024104 58 200 10.4 20.0 0.00 0.00 0.00 82 1010.9
20260506023604 58 195 10.4 17.4 0.00 0.00 0.00 82 1011.0
20260506023105 58 190 7.8 17.4 0.00 0.00 0.00 82 1011.1
20260506022604 58 167 7.8 15.6 0.00 0.00 0.00 81 1011.0
20260506022104 58 183 6.1 17.4 0.00 0.00 0.00 81 1011.0
20260506021604 58 183 7.0 17.4 0.00 0.00 0.00 81 1011.1
20260506021104 58 187 7.8 19.1 0.00 0.00 0.00 81 1011.1
20260506020604 58 168 6.1 20.0 0.00 0.00 0.00 80 1011.1
20260506020105 58 178 6.1 20.0 0.00 0.00 0.00 80 1011.0
20260506015604 58 185 7.8 18.2 0.00 0.00 0.00 80 1011.0
20260506015104 58 172 7.8 17.4 0.00 0.00 0.00 80 1011.1
20260506014604 58 132 6.1 14.8 0.00 0.00 0.00 80 1011.0
20260506014104 58 193 7.8 17.4 0.00 0.00 0.00 80 1010.9
20260506013604 58 175 7.8 17.4 0.00 0.00 0.00 80 1010.9
20260506013104 59 178 6.1 17.4 0.00 0.00 0.00 79 1010.9
20260506012604 59 191 10.4 18.2 0.00 0.00 0.00 79 1010.9
20260506012104 59 176 8.7 18.2 0.00 0.00 0.00 79 1010.9
20260506011604 59 178 10.4 18.2 0.00 0.00 0.00 79 1010.8
20260506011104 59 183 8.7 17.4 0.00 0.00 0.00 78 1010.8
20260506010604 59 177 8.7 21.7 0.00 0.00 0.00 78 1010.8
20260506010105 59 174 10.4 21.7 0.00 0.00 0.00 77 1010.7
20260506005604 59 174 10.4 18.2 0.00 0.00 0.00 77 1010.7
20260506005104 60 188 7.8 17.4 0.00 0.00 0.00 77 1010.6
20260506004604 60 201 7.0 19.1 0.00 0.00 0.00 77 1010.6
20260506004104 60 177 8.7 21.7 0.00 0.00 0.00 76 1010.6
20260506003604 60 168 6.1 21.7 0.00 0.00 0.00 76 1010.5
20260506003104 60 178 12.2 21.7 0.00 0.00 0.00 76 1010.5
20260506002604 60 197 7.8 20.9 0.00 0.00 0.00 76 1010.3
20260506002104 61 180 12.2 22.6 0.00 0.00 0.00 76 1010.3
20260506001604 61 174 8.7 22.6 0.00 0.00 0.00 75 1010.2
20260506001104 61 240 10.4 22.6 0.00 0.00 0.00 75 1010.2
20260506000604 61 170 12.2 24.3 0.00 0.00 0.00 74 1010.2
20260506000105 61 174 10.4 24.3 0.00 0.00 0.00 73 1010.0
20260505235604 62 206 10.4 22.6 0.00 0.00 0.00 72 1009.9
20260505235104 62 145 8.7 21.7 0.00 0.00 0.00 72 1009.8
20260505234604 63 166 10.4 22.6 0.00 0.00 0.00 72 1009.7
20260505234104 63 159 9.6 22.6 0.00 0.00 0.00 72 1009.6
20260505233604 63 178 8.7 20.9 0.00 0.00 0.00 72 1009.3
20260505233106 62 212 11.3 20.9 0.00 0.00 0.00 73 1009.3
20260505232604 62 164 11.3 20.9 0.00 0.00 0.00 73 1009.3
20260505232104 62 168 14.8 22.6 0.00 0.00 0.00 73 1009.2
20260505231604 62 199 11.3 22.6 0.00 0.00 0.00 73 1009.1
20260505231106 62 190 10.4 20.9 0.00 0.00 0.00 73 1009.0
20260505230604 62 185 10.4 20.9 0.00 0.00 0.00 72 1009.0
20260505230105 62 177 11.3 22.6 0.00 0.00 0.00 72 1009.0
20260505225604 62 200 13.0 22.6 0.00 0.00 0.00 72 1008.9
20260505225104 63 209 8.7 20.9 0.00 0.00 0.00 71 1009.0
20260505224604 63 183 10.4 20.9 0.00 0.00 0.00 71 1008.9
20260505224104 63 203 8.7 22.6 0.00 0.00 0.00 71 1009.0
20260505223604 63 168 7.8 22.6 0.00 0.00 0.00 71 1009.0
20260505223105 63 188 11.3 22.6 0.00 0.00 0.00 70 1008.9
20260505222604 63 200 7.8 22.6 0.00 0.00 0.00 71 1008.7
20260505222104 63 219 8.7 21.7 0.00 0.00 0.00 70 1008.7
20260505221604 64 196 11.3 22.6 0.00 0.00 0.00 70 1008.8
20260505221104 64 236 9.6 22.6 0.00 0.00 0.00 69 1008.8
20260505220604 64 178 9.6 21.7 0.00 0.00 0.00 69 1008.8
20260505220105 64 216 8.7 20.9 0.00 0.00 0.00 69 1008.7
20260505215604 64 189 12.2 21.7 0.00 0.00 0.00 69 1008.7
20260505215104 64 189 9.6 21.7 0.00 0.00 0.00 69 1008.6
20260505214604 64 165 7.8 20.0 0.00 0.00 0.00 69 1008.7
20260505214104 64 197 7.8 24.3 0.00 0.00 0.00 69 1008.7
20260505213604 64 168 8.7 24.3 0.00 0.00 0.00 70 1008.7
20260505213104 64 221 10.4 24.3 0.00 0.00 0.00 69 1008.6
20260505212604 64 178 12.2 20.9 0.00 0.00 0.00 69 1008.5
20260505212104 65 247 10.4 20.9 0.00 0.00 0.00 69 1008.5
20260505211604 65 193 10.4 22.6 0.00 0.00 0.00 68 1008.4
20260505211104 64 187 11.3 27.8 0.00 0.00 0.00 69 1008.3
20260505210604 64 172 12.2 27.8 0.00 0.00 0.00 69 1008.2
20260505210105 64 197 8.7 21.7 0.00 0.00 0.00 69 1008.3
20260505205604 64 188 11.3 21.7 0.00 0.00 0.00 70 1008.4
20260505205104 63 177 10.4 22.6 0.00 0.00 0.00 70 1008.5
20260505204604 63 157 12.2 22.6 0.00 0.00 0.00 70 1008.5
20260505204104 64 176 11.3 22.6 0.00 0.00 0.00 70 1008.5
20260505203604 64 200 10.4 20.0 0.00 0.00 0.00 70 1008.5
20260505203104 64 215 10.4 27.8 0.00 0.00 0.00 70 1008.5
20260505202604 64 282 7.8 27.8 0.00 0.00 0.00 69 1008.6
20260505202104 64 193 9.6 20.0 0.00 0.00 0.00 70 1008.6
20260505201604 64 182 11.3 20.9 0.00 0.00 0.00 69 1008.6
20260505201104 64 180 9.6 20.9 0.00 0.00 0.00 70 1008.7
20260505200604 64 147 8.7 20.9 0.00 0.00 0.00 70 1008.7
20260505200105 64 177 12.2 22.6 0.00 0.00 0.00 70 1008.7
20260505195604 64 179 13.9 22.6 0.00 0.00 0.00 69 1008.9
20260505195104 65 193 13.9 30.4 0.00 0.00 0.00 69 1008.8
20260505194604 65 187 10.4 30.4 0.00 0.00 0.00 69 1008.9
20260505194104 65 163 11.3 24.3 0.00 0.00 0.00 68 1008.9
20260505193604 65 194 7.8 19.1 0.00 0.00 0.00 69 1009.1
20260505193104 65 186 10.4 19.1 0.00 0.00 0.00 69 1009.1
20260505192604 65 170 11.3 19.1 0.00 0.00 0.00 68 1009.2
20260505192104 66 178 11.3 19.1 0.00 0.00 0.00 67 1009.3
20260505191604 66 208 6.1 22.6 0.00 0.00 0.00 68 1009.5
20260505191104 66 195 10.4 22.6 0.00 0.00 0.00 67 1009.5
20260505190604 67 192 8.7 20.0 0.00 0.00 0.00 68 1009.7
20260505190105 66 187 11.3 20.9 0.00 0.00 0.00 68 1009.9
20260505185604 66 203 10.4 21.7 0.00 0.00 0.00 69 1009.8
20260505185104 65 172 10.4 21.7 0.00 0.00 0.00 69 1010.0
20260505184604 66 175 6.1 19.1 0.00 0.00 0.00 68 1010.0
20260505184104 65 187 10.4 20.0 0.00 0.00 0.00 68 1010.0
20260505183604 66 187 7.8 20.0 0.00 0.00 0.00 67 1010.1
20260505183104 67 182 11.3 19.1 0.00 0.00 0.00 68 1010.2
20260505182604 66 158 6.1 15.6 0.00 0.00 0.00 70 1010.2
20260505182104 66 176 8.7 15.6 0.00 0.00 0.00 68 1010.2
20260505181604 66 189 5.2 15.6 0.00 0.00 0.00 70 1010.3
20260505181104 65 183 8.7 14.8 0.00 0.00 0.00 70 1010.3
20260505180604 65 184 8.7 14.8 0.00 0.00 0.00 70 1010.5
20260505180105 65 166 6.1 14.8 0.00 0.00 0.00 70 1010.5
20260505175604 65 171 6.1 13.9 0.00 0.00 0.00 71 1010.5
20260505175104 64 186 4.3 13.9 0.00 0.00 0.00 72 1010.6
20260505174604 65 179 9.6 13.9 0.00 0.00 0.00 70 1010.7
20260505174104 66 170 7.0 11.3 0.00 0.00 0.00 70 1010.8
20260505173604 66 173 5.2 12.2 0.00 0.00 0.00 71 1010.7
20260505173104 65 173 5.2 13.0 0.00 0.00 0.00 72 1010.9
20260505172604 65 182 3.5 13.0 0.00 0.00 0.00 71 1010.9
20260505172104 65 184 5.2 13.0 0.00 0.00 0.00 72 1010.8
20260505171604 64 188 6.1 13.0 0.00 0.00 0.00 71 1010.9
20260505171104 65 180 5.2 13.0 0.00 0.00 0.00 71 1010.9
20260505170604 65 186 6.1 13.9 0.00 0.00 0.00 71 1011.0
20260505170105 64 168 6.1 14.8 0.00 0.00 0.00 71 1010.9
20260505165604 64 191 8.7 14.8 0.00 0.00 0.00 71 1011.1
20260505165105 64 190 8.7 14.8 0.00 0.00 0.00 72 1011.1
20260505164604 64 194 5.2 14.8 0.00 0.00 0.00 72 1011.1
20260505164104 64 172 6.1 17.4 0.00 0.00 0.00 71 1011.2
20260505163604 65 190 7.8 17.4 0.00 0.00 0.00 69 1011.1
20260505163104 66 178 7.0 13.9 0.00 0.00 0.00 69 1011.2
20260505162604 66 187 7.8 13.9 0.00 0.00 0.00 69 1011.2
20260505162104 67 169 7.0 11.3 0.00 0.00 0.00 68 1011.2
20260505161604 68 180 7.0 10.4 0.00 0.00 0.00 68 1011.2
20260505161104 68 189 5.2 12.2 0.00 0.00 0.00 67 1011.3
20260505160604 68 176 6.1 12.2 0.00 0.00 0.00 67 1011.3
20260505160105 68 171 5.2 12.2 0.00 0.00 0.00 68 1011.4
20260505153104 66 168 6.1 12.2 0.00 0.00 0.00 71 1011.7
20260505152604 66 167 7.8 12.2 0.00 0.00 0.00 71 1011.7
20260505152104 65 167 6.1 10.4 0.00 0.00 0.00 72 1011.8
20260505151604 65 160 5.2 8.7 0.00 0.00 0.00 72 1011.7
20260505151104 65 168 5.2 8.7 0.00 0.00 0.00 73 1011.8
20260505150604 65 171 4.3 10.4 0.00 0.00 0.00 72 1011.9
20260505150105 64 199 1.7 10.4 0.00 0.00 0.00 74 1012.0
20260505140604 64 163 7.0 10.4 0.00 0.00 0.00 73 1011.9
20260505140105 64 187 6.1 10.4 0.00 0.00 0.00 73 1011.8
20260505130105 62 156 4.3 7.8 0.00 0.00 0.00 78 1011.7
20260505124604 61 190 5.2 8.7 0.00 0.00 0.00 78 1011.7
20260505124104 62 197 5.2 8.7 0.00 0.00 0.00 79 1011.6
20260505123604 61 182 2.6 7.8 0.00 0.00 0.00 79 1011.5
20260505123104 61 189 4.3 6.1 0.00 0.00 0.00 81 1011.4
20260505122604 60 184 2.6 5.2 0.00 0.00 0.00 82 1011.5
20260505122104 59 175 1.7 6.1 0.00 0.00 0.00 84 1011.5
20260505121604 58 177 2.6 6.1 0.00 0.00 0.00 85 1011.5
20260505121104 58 188 1.7 5.2 0.00 0.00 0.00 85 1011.5
20260505120604 57 164 1.7 4.3 0.00 0.00 0.00 86 1011.5
20260505120105 57 185 1.7 5.2 0.00 0.00 0.00 86 1011.4
20260505115604 57 161 2.6 5.2 0.00 0.00 0.00 86 1011.6
20260505115104 58 163 2.6 2.6 0.00 0.00 0.00 86 1011.7
20260505114604 57 181 1.7 4.3 0.00 0.00 0.00 86 1011.7
20260505114104 57 164 1.7 4.3 0.00 0.00 0.00 87 1011.7
20260505113604 57 159 1.7 4.3 0.00 0.00 0.00 87 1011.7
20260505113104 57 145 1.7 2.6 0.00 0.00 0.00 87 1011.7
20260505112604 57 136 1.7 2.6 0.00 0.00 0.00 88 1011.6
20260505112104 57 127 1.7 2.6 0.00 0.00 0.00 88 1011.5
20260505111604 56 118 1.7 2.6 0.00 0.00 0.00 90 1011.6
20260505111104 56 189 0.9 2.6 0.00 0.00 0.00 90 1011.5
20260505110604 55 189 0.0 1.7 0.00 0.00 0.00 91 1011.5
20260505110105 55 189 0.9 1.7 0.00 0.00 0.00 91 1011.4
20260505102104 53 183 1.7 2.6 0.00 0.00 0.00 92 1011.0
20260505101604 53 199 1.7 2.6 0.00 0.00 0.00 92 1010.9
20260505101104 53 199 1.7 4.3 0.00 0.00 0.00 92 1010.8
20260505100604 52 194 1.7 4.3 0.00 0.00 0.00 92 1010.7
20260505100105 52 201 1.7 7.8 0.00 0.00 0.00 92 1010.8
20260505095604 52 245 1.7 7.8 0.00 0.00 0.00 92 1010.7
20260505095104 52 183 3.5 7.0 0.00 0.00 0.00 92 1010.7
20260505094604 52 167 2.6 4.3 0.00 0.00 0.00 92 1010.6
20260505094104 52 201 1.7 2.6 0.00 0.00 0.00 92 1010.6
20260505093604 52 209 0.9 5.2 0.00 0.00 0.00 92 1010.5
20260505093104 52 205 0.9 5.2 0.00 0.00 0.00 92 1010.6
20260505092604 52 204 1.7 5.2 0.00 0.00 0.00 92 1010.6
20260505092104 52 183 1.7 7.0 0.00 0.00 0.00 91 1010.6
20260505091604 52 182 2.6 7.0 0.00 0.00 0.00 91 1010.6
20260505091104 52 195 2.6 5.2 0.00 0.00 0.00 91 1010.6
20260505090604 52 189 0.9 4.3 0.00 0.00 0.00 91 1010.6
20260505090105 52 189 2.6 4.3 0.00 0.00 0.00 91 1010.6
20260505085604 53 179 0.9 4.3 0.00 0.00 0.00 91 1010.6
20260505085104 53 201 1.7 2.6 0.00 0.00 0.00 91 1010.6
20260505084604 53 205 0.9 5.2 0.00 0.00 0.00 91 1010.5
20260505084104 53 232 1.7 7.0 0.00 0.00 0.00 91 1010.5
20260505083604 53 192 2.6 7.0 0.00 0.00 0.00 91 1010.5
20260505083105 53 172 1.7 7.0 0.00 0.00 0.00 91 1010.5
20260505082604 53 182 3.5 7.0 0.00 0.00 0.00 91 1010.6
20260505082104 53 183 3.5 8.7 0.00 0.00 0.00 91 1010.7
20260505081604 53 181 3.5 8.7 0.00 0.00 0.00 90 1010.7
20260505081104 53 179 2.6 6.1 0.00 0.00 0.00 90 1010.8
20260505080604 53 196 2.6 8.7 0.00 0.00 0.00 90 1010.7
20260505080105 53 196 3.5 8.7 0.00 0.00 0.00 90 1010.6
20260505075604 53 188 2.6 6.1 0.00 0.00 0.00 90 1010.6
20260505075104 53 186 2.6 6.1 0.00 0.00 0.00 90 1010.6
20260505074604 53 197 1.7 6.1 0.00 0.00 0.00 90 1010.6
20260505074104 53 186 2.6 7.0 0.00 0.00 0.00 90 1010.5
20260505073604 54 199 1.7 7.0 0.00 0.00 0.00 90 1010.5
20260505073104 54 187 4.3 6.1 0.00 0.00 0.00 90 1010.6
20260505072604 54 198 3.5 8.7 0.00 0.00 0.00 90 1010.6
20260505072104 53 180 2.6 8.7 0.00 0.00 0.00 90 1010.5
20260505071604 53 191 3.5 7.0 0.00 0.00 0.00 90 1010.6
20260505071104 53 202 2.6 6.1 0.00 0.00 0.00 90 1010.5
20260505070604 53 209 1.7 7.8 0.00 0.00 0.00 90 1010.5
20260505070105 54 225 4.3 8.7 0.00 0.00 0.00 90 1010.5
20260505065604 54 174 3.5 10.4 0.00 0.00 0.00 90 1010.5
20260505065104 53 198 2.6 10.4 0.00 0.00 0.00 90 1010.6
20260505064604 53 190 3.5 8.7 0.00 0.00 0.00 90 1010.6
20260505064104 53 195 4.3 8.7 0.00 0.00 0.00 90 1010.7
20260505063604 53 215 4.3 8.7 0.00 0.00 0.00 89 1010.7
20260505063104 53 199 1.7 6.1 0.00 0.00 0.00 89 1010.8
20260505062604 53 212 0.9 7.0 0.00 0.00 0.00 89 1010.8
20260505062104 53 188 4.3 7.8 0.00 0.00 0.00 89 1010.8
20260505061604 53 186 5.2 8.7 0.00 0.00 0.00 89 1010.9
20260505061104 53 189 3.5 8.7 0.00 0.00 0.00 89 1010.8
20260505060604 54 203 1.7 6.1 0.00 0.00 0.00 89 1010.9
20260505060105 54 198 2.6 7.0 0.00 0.00 0.00 89 1010.9
20260505055604 54 220 4.3 7.0 0.00 0.00 0.00 88 1010.9
20260505055104 54 182 3.5 8.7 0.00 0.00 0.00 88 1010.9
20260505054604 54 193 2.6 10.4 0.00 0.00 0.00 88 1010.9
20260505054104 54 200 4.3 10.4 0.00 0.00 0.00 88 1011.0
20260505053604 54 205 2.6 7.8 0.00 0.00 0.00 88 1011.0
20260505053104 54 195 3.5 6.1 0.00 0.00 0.00 88 1011.1
20260505052604 54 184 3.5 7.8 0.00 0.00 0.00 88 1011.1
20260505052104 54 194 4.3 7.8 0.00 0.00 0.00 88 1011.2
20260505051604 54 186 3.5 7.8 0.00 0.00 0.00 87 1011.2
20260505051104 54 199 1.7 6.1 0.00 0.00 0.00 87 1011.2
20260505050604 54 186 0.9 6.1 0.00 0.00 0.00 87 1011.2
20260505050105 54 204 2.6 7.8 0.00 0.00 0.00 87 1011.2
20260505041604 55 198 3.5 10.4 0.00 0.00 0.00 84 1011.4
20260505041104 55 182 5.2 10.4 0.00 0.00 0.00 84 1011.4
20260505040604 55 189 5.2 11.3 0.00 0.00 0.00 83 1011.3
20260505040105 55 173 4.3 11.3 0.00 0.00 0.00 83 1011.3
20260505035604 55 179 5.2 11.3 0.00 0.00 0.00 82 1011.4
20260505035105 55 185 3.5 10.4 0.00 0.00 0.00 82 1011.4
20260505034604 55 185 4.3 12.2 0.00 0.00 0.00 81 1011.3
20260505034104 56 186 5.2 12.2 0.00 0.00 0.00 80 1011.3